Volver al catálogo

COSMOS 1433

ActivoMilitarLEO
NORAD 13765·PAYLOAD·🇷🇺 Russia

Lanzado Jan 19, 1983 desde Plesetsk Cosmodrome

Loading…

Próximos Pases (próximas 24 horas)

TLE

ActualizadoSource: Space-Track

Época: Sep 14, 2026, 08:53 UTC

1 13765U 83002E   26257.37082473  .00000007  00000-0  15017-3 0  9995
2 13765  74.0233 134.5322 0013858 194.4345 282.0226 12.51951949995278

Sigue COSMOS 1433 en tiempo real con AllMySat

Download on the App Store